| time (UTC) | temp C | wind direction | speed KPH | gust KPH | rain 1hr cm | rain 24hr cm | rain mn cm | humidity % | barometer mb |
| 20260506191528 | 19 | 265 | 1.6 | 9.7 | 0.00 | 0.00 | 0.00 | 71 | 1007.0 |
| 20260506191027 | 20 | 227 | 4.8 | 12.9 | 0.00 | 0.00 | 0.00 | 67 | 1006.9 |
| 20260506190527 | 20 | 278 | 3.2 | 14.5 | 0.00 | 0.00 | 0.00 | 65 | 1006.9 |
| 20260506190027 | 20 | 257 | 3.2 | 11.3 | 0.00 | 0.00 | 0.00 | 64 | 1007.0 |
| 20260506185529 | 20 | 242 | 3.2 | 22.5 | 0.00 | 0.00 | 0.00 | 63 | 1007.0 |
| 20260506185029 | 20 | 226 | 6.4 | 22.5 | 0.00 | 0.00 | 0.00 | 62 | 1007.1 |
| 20260506184528 | 20 | 252 | 6.4 | 22.5 | 0.00 | 0.00 | 0.00 | 61 | 1007.0 |
| 20260506184029 | 21 | 149 | 3.2 | 24.1 | 0.00 | 0.00 | 0.00 | 60 | 1007.0 |
| 20260506183528 | 21 | 232 | 4.8 | 37.0 | 0.00 | 0.00 | 0.00 | 58 | 1007.0 |
| 20260506183028 | 21 | 234 | 3.2 | 11.3 | 0.00 | 0.00 | 0.00 | 56 | 1007.0 |
| 20260506182528 | 21 | 198 | 4.8 | 20.9 | 0.00 | 0.00 | 0.00 | 55 | 1007.1 |
| 20260506182028 | 21 | 215 | 3.2 | 20.9 | 0.00 | 0.00 | 0.00 | 54 | 1007.1 |
| 20260506181528 | 22 | 75 | 1.6 | 4.8 | 0.00 | 0.00 | 0.00 | 54 | 1007.1 |
| 20260506181048 | 22 | 232 | 1.6 | 6.4 | 0.00 | 0.00 | 0.00 | 53 | 1007.0 |
| 20260506180528 | 22 | 286 | 3.2 | 17.7 | 0.00 | 0.00 | 0.00 | 53 | 1007.2 |
| 20260506180027 | 22 | 211 | 4.8 | 20.9 | 0.00 | 0.00 | 0.00 | 52 | 1007.3 |
| 20260506175548 | 22 | 223 | 8.0 | 24.1 | 0.00 | 0.00 | 0.00 | 52 | 1007.3 |
| 20260506175027 | 22 | 247 | 6.4 | 24.1 | 0.00 | 0.00 | 0.00 | 52 | 1007.4 |
| 20260506174527 | 22 | 192 | 4.8 | 20.9 | 0.00 | 0.00 | 0.00 | 54 | 1007.3 |
| 20260506174049 | 22 | 193 | 6.4 | 20.9 | 0.00 | 0.00 | 0.00 | 55 | 1007.3 |
| 20260506173529 | 22 | 169 | 6.4 | 20.9 | 0.00 | 0.00 | 0.00 | 56 | 1007.5 |
| 20260506173029 | 22 | 172 | 6.4 | 29.0 | 0.00 | 0.00 | 0.00 | 56 | 1007.6 |
| 20260506172548 | 22 | 208 | 4.8 | 17.7 | 0.00 | 0.00 | 0.00 | 56 | 1007.5 |
| 20260506172028 | 22 | 195 | 8.0 | 20.9 | 0.00 | 0.00 | 0.00 | 56 | 1007.6 |
| 20260506171548 | 22 | 188 | 6.4 | 22.5 | 0.00 | 0.00 | 0.00 | 56 | 1007.5 |
| 20260506171028 | 22 | 209 | 6.4 | 22.5 | 0.00 | 0.00 | 0.00 | 57 | 1007.5 |
| 20260506170548 | 22 | 193 | 4.8 | 16.1 | 0.00 | 0.00 | 0.00 | 59 | 1007.6 |
| 20260506170028 | 21 | 160 | 8.0 | 22.5 | 0.00 | 0.00 | 0.00 | 58 | 1007.6 |
| 20260506165548 | 21 | 200 | 6.4 | 22.5 | 0.00 | 0.00 | 0.00 | 58 | 1007.8 |
| 20260506165028 | 21 | 234 | 6.4 | 20.9 | 0.00 | 0.00 | 0.00 | 57 | 1007.8 |
| 20260506164527 | 21 | 189 | 6.4 | 16.1 | 0.00 | 0.00 | 0.00 | 58 | 1007.9 |
| 20260506164027 | 21 | 280 | 4.8 | 12.9 | 0.00 | 0.00 | 0.00 | 58 | 1007.9 |
| 20260506163527 | 21 | 220 | 3.2 | 11.3 | 0.00 | 0.00 | 0.00 | 58 | 1007.9 |
| 20260506163027 | 21 | 155 | 4.8 | 17.7 | 0.00 | 0.00 | 0.00 | 58 | 1008.0 |
| 20260506162547 | 21 | 165 | 4.8 | 16.1 | 0.00 | 0.00 | 0.00 | 57 | 1008.2 |
| 20260506162027 | 22 | 231 | 4.8 | 16.1 | 0.00 | 0.00 | 0.00 | 57 | 1008.3 |
| 20260506161527 | 22 | 184 | 4.8 | 16.1 | 0.00 | 0.00 | 0.00 | 56 | 1008.4 |
| 20260506161028 | 22 | 169 | 3.2 | 12.9 | 0.00 | 0.00 | 0.00 | 57 | 1008.3 |
| 20260506160528 | 22 | 207 | 3.2 | 17.7 | 0.00 | 0.00 | 0.00 | 57 | 1008.5 |
| 20260506160028 | 22 | 288 | 4.8 | 11.3 | 0.00 | 0.00 | 0.00 | 56 | 1008.5 |
| 20260506155528 | 22 | 157 | 3.2 | 24.1 | 0.00 | 0.00 | 0.00 | 56 | 1008.7 |
| 20260506155028 | 22 | 230 | 6.4 | 24.1 | 0.00 | 0.00 | 0.00 | 55 | 1008.8 |
| 20260506154528 | 22 | 249 | 1.6 | 9.7 | 0.00 | 0.00 | 0.00 | 57 | 1008.7 |
| 20260506154048 | 22 | 230 | 3.2 | 17.7 | 0.00 | 0.00 | 0.00 | 56 | 1008.8 |
| 20260506153527 | 22 | 188 | 6.4 | 20.9 | 0.00 | 0.00 | 0.00 | 56 | 1008.9 |
| 20260506153027 | 22 | 243 | 6.4 | 27.4 | 0.00 | 0.00 | 0.00 | 55 | 1009.1 |
| 20260506152527 | 22 | 224 | 4.8 | 14.5 | 0.00 | 0.00 | 0.00 | 55 | 1009.0 |
| 20260506152029 | 22 | 211 | 6.4 | 16.1 | 0.00 | 0.00 | 0.00 | 55 | 1009.0 |
| 20260506151529 | 22 | 199 | 4.8 | 16.1 | 0.00 | 0.00 | 0.00 | 57 | 1009.1 |
| 20260506151029 | 22 | 212 | 6.4 | 24.1 | 0.00 | 0.00 | 0.00 | 57 | 1009.2 |
| 20260506150549 | 22 | 206 | 4.8 | 16.1 | 0.00 | 0.00 | 0.00 | 58 | 1009.2 |
| 20260506150049 | 21 | 238 | 4.8 | 12.9 | 0.00 | 0.00 | 0.00 | 58 | 1009.3 |
| 20260506145528 | 21 | 248 | 4.8 | 25.7 | 0.00 | 0.00 | 0.00 | 59 | 1009.3 |
| 20260506145028 | 21 | 206 | 3.2 | 16.1 | 0.00 | 0.00 | 0.00 | 60 | 1009.1 |
| 20260506144548 | 21 | 206 | 4.8 | 16.1 | 0.00 | 0.00 | 0.00 | 60 | 1009.2 |
| 20260506144028 | 21 | 230 | 4.8 | 16.1 | 0.00 | 0.00 | 0.00 | 61 | 1009.1 |
| 20260506143528 | 21 | 248 | 4.8 | 16.1 | 0.00 | 0.00 | 0.00 | 61 | 1009.2 |
| 20260506143028 | 21 | 223 | 4.8 | 16.1 | 0.00 | 0.00 | 0.00 | 62 | 1009.2 |
| 20260506142528 | 21 | 208 | 3.2 | 20.9 | 0.00 | 0.00 | 0.00 | 62 | 1009.1 |
| 20260506142028 | 20 | 196 | 4.8 | 20.9 | 0.00 | 0.00 | 0.00 | 64 | 1009.1 |
| 20260506141527 | 20 | 201 | 4.8 | 22.5 | 0.00 | 0.00 | 0.00 | 63 | 1009.2 |
| 20260506141027 | 20 | 186 | 4.8 | 17.7 | 0.00 | 0.00 | 0.00 | 65 | 1009.2 |
| 20260506140529 | 20 | 236 | 4.8 | 22.5 | 0.00 | 0.00 | 0.00 | 65 | 1009.3 |
| 20260506140029 | 20 | 208 | 4.8 | 17.7 | 0.00 | 0.00 | 0.00 | 65 | 1009.3 |
| 20260506135529 | 20 | 186 | 4.8 | 17.7 | 0.00 | 0.00 | 0.00 | 67 | 1009.3 |
| 20260506135028 | 19 | 154 | 3.2 | 12.9 | 0.00 | 0.00 | 0.00 | 68 | 1009.3 |
| 20260506134528 | 19 | 202 | 4.8 | 22.5 | 0.00 | 0.00 | 0.00 | 69 | 1009.4 |
| 20260506134028 | 18 | 217 | 4.8 | 17.7 | 0.00 | 0.00 | 0.00 | 69 | 1009.6 |
| 20260506133528 | 18 | 164 | 4.8 | 14.5 | 0.00 | 0.00 | 0.00 | 70 | 1009.8 |
| 20260506133028 | 18 | 178 | 1.6 | 9.7 | 0.00 | 0.00 | 0.00 | 72 | 1009.9 |
| 20260506132528 | 18 | 211 | 3.2 | 11.3 | 0.00 | 0.00 | 0.00 | 72 | 1009.9 |
| 20260506132027 | 18 | 190 | 1.6 | 14.5 | 0.00 | 0.00 | 0.00 | 71 | 1009.8 |
| 20260506131548 | 18 | 205 | 3.2 | 14.5 | 0.00 | 0.00 | 0.00 | 71 | 1009.8 |
| 20260506131027 | 18 | 266 | 1.6 | 14.5 | 0.00 | 0.00 | 0.00 | 73 | 1009.7 |
| 20260506130527 | 18 | 221 | 1.6 | 6.4 | 0.00 | 0.00 | 0.00 | 73 | 1009.8 |
| 20260506130027 | 18 | 198 | 3.2 | 11.3 | 0.00 | 0.00 | 0.00 | 72 | 1009.8 |
| 20260506125527 | 18 | 186 | 3.2 | 11.3 | 0.00 | 0.00 | 0.00 | 73 | 1009.8 |
| 20260506125029 | 18 | 199 | 4.8 | 16.1 | 0.00 | 0.00 | 0.00 | 73 | 1009.7 |
| 20260506124529 | 17 | 174 | 6.4 | 16.1 | 0.00 | 0.00 | 0.00 | 73 | 1009.8 |
| 20260506124029 | 17 | 169 | 4.8 | 16.1 | 0.00 | 0.00 | 0.00 | 73 | 1010.0 |
| 20260506123528 | 17 | 175 | 4.8 | 16.1 | 0.00 | 0.00 | 0.00 | 74 | 1010.1 |
| 20260506123028 | 17 | 211 | 1.6 | 4.8 | 0.00 | 0.00 | 0.00 | 77 | 1010.0 |
| 20260506122528 | 17 | 196 | 1.6 | 4.8 | 0.00 | 0.00 | 0.00 | 76 | 1010.0 |
| 20260506122028 | 17 | 214 | 3.2 | 11.3 | 0.00 | 0.00 | 0.00 | 75 | 1009.8 |
| 20260506121528 | 17 | 172 | 4.8 | 20.9 | 0.00 | 0.00 | 0.00 | 75 | 1009.9 |
| 20260506121028 | 17 | 209 | 4.8 | 16.1 | 0.00 | 0.00 | 0.00 | 75 | 1009.8 |
| 20260506120527 | 17 | 221 | 4.8 | 16.1 | 0.00 | 0.00 | 0.00 | 75 | 1009.9 |
| 20260506120028 | 16 | 174 | 4.8 | 16.1 | 0.00 | 0.00 | 0.00 | 77 | 1010.0 |
| 20260506115527 | 16 | 204 | 4.8 | 16.1 | 0.00 | 0.00 | 0.00 | 77 | 1010.2 |
| 20260506115027 | 16 | 212 | 3.2 | 16.1 | 0.00 | 0.00 | 0.00 | 78 | 1010.2 |
| 20260506114527 | 16 | 191 | 3.2 | 6.4 | 0.00 | 0.00 | 0.00 | 78 | 1010.1 |
| 20260506114027 | 16 | 218 | 3.2 | 16.1 | 0.00 | 0.00 | 0.00 | 78 | 1010.4 |
| 20260506113529 | 16 | 227 | 3.2 | 11.3 | 0.00 | 0.00 | 0.00 | 78 | 1010.4 |
| 20260506113029 | 16 | 258 | 3.2 | 20.9 | 0.00 | 0.00 | 0.00 | 78 | 1010.4 |
| 20260506112528 | 16 | 220 | 3.2 | 12.9 | 0.00 | 0.00 | 0.00 | 78 | 1010.3 |
| 20260506112028 | 16 | 231 | 3.2 | 12.9 | 0.00 | 0.00 | 0.00 | 77 | 1010.1 |
| 20260506111528 | 16 | 206 | 3.2 | 16.1 | 0.00 | 0.00 | 0.00 | 78 | 1010.2 |
| 20260506111028 | 16 | 231 | 3.2 | 16.1 | 0.00 | 0.00 | 0.00 | 77 | 1010.2 |
| 20260506110528 | 16 | 208 | 4.8 | 16.1 | 0.00 | 0.00 | 0.00 | 78 | 1010.3 |
| 20260506110028 | 16 | 204 | 3.2 | 12.9 | 0.00 | 0.00 | 0.00 | 79 | 1010.1 |
| 20260506105528 | 15 | 192 | 4.8 | 14.5 | 0.00 | 0.00 | 0.00 | 80 | 1010.1 |
| 20260506105027 | 15 | 202 | 1.6 | 11.3 | 0.00 | 0.00 | 0.00 | 81 | 1010.2 |
| 20260506104527 | 15 | 193 | 3.2 | 16.1 | 0.00 | 0.00 | 0.00 | 80 | 1010.2 |
| 20260506104027 | 15 | 215 | 3.2 | 9.7 | 0.00 | 0.00 | 0.00 | 81 | 1010.3 |
| 20260506103527 | 15 | 162 | 3.2 | 6.4 | 0.00 | 0.00 | 0.00 | 80 | 1010.3 |
| 20260506103027 | 15 | 212 | 3.2 | 6.4 | 0.00 | 0.00 | 0.00 | 80 | 1010.3 |
| 20260506102528 | 15 | 215 | 3.2 | 12.9 | 0.00 | 0.00 | 0.00 | 80 | 1010.2 |
| 20260506102027 | 15 | 200 | 3.2 | 12.9 | 0.00 | 0.00 | 0.00 | 80 | 1010.3 |
| 20260506101527 | 15 | 182 | 3.2 | 14.5 | 0.00 | 0.00 | 0.00 | 80 | 1010.2 |
| 20260506101027 | 15 | 158 | 1.6 | 9.7 | 0.00 | 0.00 | 0.00 | 80 | 1010.1 |
| 20260506100547 | 15 | 207 | 1.6 | 9.7 | 0.00 | 0.00 | 0.00 | 80 | 1010.2 |
| 20260506100029 | 15 | 200 | 1.6 | 11.3 | 0.00 | 0.00 | 0.00 | 80 | 1010.1 |
| 20260506095528 | 15 | 185 | 1.6 | 12.9 | 0.00 | 0.00 | 0.00 | 80 | 1009.9 |
| 20260506095028 | 15 | 190 | 3.2 | 12.9 | 0.00 | 0.00 | 0.00 | 79 | 1009.9 |
| 20260506094528 | 15 | 204 | 3.2 | 11.3 | 0.00 | 0.00 | 0.00 | 79 | 1009.9 |
| 20260506094027 | 15 | 196 | 3.2 | 11.3 | 0.00 | 0.00 | 0.00 | 79 | 1010.0 |
| 20260506093527 | 15 | 201 | 1.6 | 6.4 | 0.00 | 0.00 | 0.00 | 79 | 1010.0 |
| 20260506093027 | 15 | 201 | 1.6 | 12.9 | 0.00 | 0.00 | 0.00 | 78 | 1010.1 |
| 20260506092527 | 15 | 211 | 1.6 | 11.3 | 0.00 | 0.00 | 0.00 | 78 | 1010.0 |
| 20260506092027 | 16 | 167 | 1.6 | 9.7 | 0.00 | 0.00 | 0.00 | 78 | 1010.1 |
| 20260506091528 | 16 | 199 | 3.2 | 12.9 | 0.00 | 0.00 | 0.00 | 77 | 1010.0 |
| 20260506091028 | 16 | 217 | 1.6 | 6.4 | 0.00 | 0.00 | 0.00 | 77 | 1010.1 |
| 20260506090528 | 16 | 205 | 3.2 | 9.7 | 0.00 | 0.00 | 0.00 | 76 | 1010.0 |
| 20260506090028 | 16 | 214 | 3.2 | 12.9 | 0.00 | 0.00 | 0.00 | 76 | 1010.1 |
| 20260506085528 | 16 | 199 | 3.2 | 11.3 | 0.00 | 0.00 | 0.00 | 76 | 1010.1 |
| 20260506085028 | 16 | 204 | 1.6 | 9.7 | 0.00 | 0.00 | 0.00 | 76 | 1010.1 |
| 20260506084528 | 16 | 209 | 1.6 | 9.7 | 0.00 | 0.00 | 0.00 | 75 | 1010.1 |
| 20260506084028 | 16 | 203 | 4.8 | 16.1 | 0.00 | 0.00 | 0.00 | 75 | 1010.1 |
| 20260506083527 | 16 | 218 | 3.2 | 16.1 | 0.00 | 0.00 | 0.00 | 75 | 1010.1 |
| 20260506083028 | 16 | 235 | 3.2 | 12.9 | 0.00 | 0.00 | 0.00 | 75 | 1010.0 |
| 20260506082527 | 16 | 193 | 4.8 | 24.1 | 0.00 | 0.00 | 0.00 | 75 | 1010.0 |
| 20260506082027 | 16 | 286 | 3.2 | 12.9 | 0.00 | 0.00 | 0.00 | 74 | 1009.9 |
| 20260506081527 | 16 | 249 | 1.6 | 9.7 | 0.00 | 0.00 | 0.00 | 74 | 1009.9 |
| 20260506081027 | 16 | 228 | 3.2 | 17.7 | 0.00 | 0.00 | 0.00 | 74 | 1010.0 |
| 20260506080609 | 16 | 218 | 3.2 | 14.5 | 0.00 | 0.00 | 0.00 | 74 | 1010.0 |
| 20260506073028 | 16 | 204 | 4.8 | 22.5 | 0.00 | 0.00 | 0.00 | 72 | 1009.8 |
| 20260506072528 | 16 | 169 | 4.8 | 25.7 | 0.00 | 0.00 | 0.00 | 72 | 1009.8 |
| 20260506072027 | 16 | 249 | 3.2 | 20.9 | 0.00 | 0.00 | 0.00 | 72 | 1009.8 |
| 20260506071528 | 16 | 180 | 4.8 | 20.9 | 0.00 | 0.00 | 0.00 | 71 | 1009.8 |
| 20260506071027 | 17 | 208 | 1.6 | 12.9 | 0.00 | 0.00 | 0.00 | 71 | 1009.7 |
| 20260506070528 | 17 | 213 | 3.2 | 12.9 | 0.00 | 0.00 | 0.00 | 70 | 1009.6 |
| 20260506062028 | 17 | 192 | 3.2 | 11.3 | 0.00 | 0.00 | 0.00 | 67 | 1009.5 |
| 20260506061528 | 17 | 204 | 3.2 | 14.5 | 0.00 | 0.00 | 0.00 | 66 | 1009.5 |
| 20260506061027 | 17 | 205 | 3.2 | 17.7 | 0.00 | 0.00 | 0.00 | 66 | 1009.4 |
| 20260506060527 | 17 | 201 | 3.2 | 11.3 | 0.00 | 0.00 | 0.00 | 65 | 1009.4 |
| 20260506051108 | 17 | 215 | 3.2 | 12.9 | 0.00 | 0.00 | 0.00 | 62 | 1009.8 |
| 20260506050548 | 17 | 172 | 3.2 | 22.5 | 0.00 | 0.00 | 0.00 | 62 | 1009.8 |
| 20260506045028 | 18 | 192 | 3.2 | 12.9 | 0.00 | 0.00 | 0.00 | 61 | 1010.0 |
| 20260506044528 | 18 | 193 | 4.8 | 22.5 | 0.00 | 0.00 | 0.00 | 61 | 1010.0 |
| 20260506044027 | 17 | 198 | 4.8 | 17.7 | 0.00 | 0.00 | 0.00 | 61 | 1009.9 |
| 20260506043527 | 17 | 199 | 3.2 | 9.7 | 0.00 | 0.00 | 0.00 | 61 | 1009.9 |
| 20260506043027 | 17 | 244 | 3.2 | 11.3 | 0.00 | 0.00 | 0.00 | 61 | 1009.9 |
| 20260506042527 | 17 | 247 | 1.6 | 11.3 | 0.00 | 0.00 | 0.00 | 61 | 1010.0 |
| 20260506042032 | 17 | 185 | 3.2 | 9.7 | 0.00 | 0.00 | 0.00 | 61 | 1010.0 |
| 20260506041529 | 18 | 299 | 3.2 | 12.9 | 0.00 | 0.00 | 0.00 | 60 | 1009.9 |
| 20260506041029 | 17 | 269 | 4.8 | 14.5 | 0.00 | 0.00 | 0.00 | 60 | 1010.0 |
| 20260506040549 | 17 | 229 | 4.8 | 17.7 | 0.00 | 0.00 | 0.00 | 60 | 1010.0 |
| 20260506040028 | 17 | 225 | 4.8 | 14.5 | 0.00 | 0.00 | 0.00 | 60 | 1009.9 |
| 20260506035528 | 17 | 220 | 4.8 | 20.9 | 0.00 | 0.00 | 0.00 | 61 | 1010.0 |
| 20260506035028 | 17 | 198 | 3.2 | 16.1 | 0.00 | 0.00 | 0.00 | 61 | 1009.9 |
| 20260506034528 | 17 | 261 | 3.2 | 17.7 | 0.00 | 0.00 | 0.00 | 61 | 1009.9 |
| 20260506034028 | 17 | 201 | 3.2 | 17.7 | 0.00 | 0.00 | 0.00 | 61 | 1009.9 |
| 20260506033528 | 17 | 214 | 3.2 | 11.3 | 0.00 | 0.00 | 0.00 | 60 | 1009.8 |
| 20260506033027 | 17 | 213 | 4.8 | 24.1 | 0.00 | 0.00 | 0.00 | 60 | 1009.9 |
| 20260506032528 | 17 | 245 | 3.2 | 16.1 | 0.00 | 0.00 | 0.00 | 60 | 1009.8 |
| 20260506032027 | 17 | 240 | 1.6 | 12.9 | 0.00 | 0.00 | 0.00 | 60 | 1009.8 |
| 20260506031527 | 17 | 228 | 3.2 | 14.5 | 0.00 | 0.00 | 0.00 | 60 | 1009.8 |
| 20260506031027 | 17 | 198 | 3.2 | 16.1 | 0.00 | 0.00 | 0.00 | 60 | 1009.7 |
| 20260506030527 | 17 | 210 | 4.8 | 12.9 | 0.00 | 0.00 | 0.00 | 59 | 1009.7 |
| 20260506030029 | 17 | 234 | 3.2 | 12.9 | 0.00 | 0.00 | 0.00 | 59 | 1009.8 |
| 20260506025528 | 17 | 236 | 1.6 | 11.3 | 0.00 | 0.00 | 0.00 | 59 | 1009.8 |
| 20260506025028 | 17 | 224 | 4.8 | 25.7 | 0.00 | 0.00 | 0.00 | 58 | 1009.8 |
| 20260506024528 | 17 | 224 | 3.2 | 16.1 | 0.00 | 0.00 | 0.00 | 58 | 1009.8 |
| 20260506024028 | 17 | 207 | 4.8 | 22.5 | 0.00 | 0.00 | 0.00 | 58 | 1009.8 |
| 20260506023528 | 17 | 225 | 4.8 | 16.1 | 0.00 | 0.00 | 0.00 | 58 | 1009.8 |
| 20260506023028 | 18 | 231 | 3.2 | 17.7 | 0.00 | 0.00 | 0.00 | 57 | 1009.8 |
| 20260506022527 | 18 | 150 | 4.8 | 17.7 | 0.00 | 0.00 | 0.00 | 57 | 1009.8 |
| 20260506022027 | 18 | 234 | 3.2 | 20.9 | 0.00 | 0.00 | 0.00 | 57 | 1009.7 |
| 20260506021527 | 18 | 211 | 4.8 | 16.1 | 0.00 | 0.00 | 0.00 | 56 | 1009.7 |
| 20260506021027 | 18 | 187 | 1.6 | 12.9 | 0.00 | 0.00 | 0.00 | 57 | 1009.7 |
| 20260506020527 | 18 | 259 | 1.6 | 17.7 | 0.00 | 0.00 | 0.00 | 56 | 1009.7 |
| 20260506020027 | 18 | 64 | 6.4 | 22.5 | 0.00 | 0.00 | 0.00 | 55 | 1009.7 |
| 20260506015527 | 18 | 241 | 3.2 | 22.5 | 0.00 | 0.00 | 0.00 | 55 | 1009.6 |
| 20260506015027 | 18 | 212 | 3.2 | 11.3 | 0.00 | 0.00 | 0.00 | 55 | 1009.7 |
| 20260506014528 | 18 | 216 | 4.8 | 16.1 | 0.00 | 0.00 | 0.00 | 54 | 1009.7 |
| 20260506014028 | 18 | 208 | 6.4 | 17.7 | 0.00 | 0.00 | 0.00 | 54 | 1009.6 |
| 20260506013528 | 18 | 193 | 6.4 | 22.5 | 0.00 | 0.00 | 0.00 | 54 | 1009.6 |
| 20260506013028 | 18 | 264 | 3.2 | 22.5 | 0.00 | 0.00 | 0.00 | 54 | 1009.4 |
| 20260506012548 | 19 | 221 | 4.8 | 20.9 | 0.00 | 0.00 | 0.00 | 54 | 1009.4 |
| 20260506012048 | 19 | 211 | 6.4 | 20.9 | 0.00 | 0.00 | 0.00 | 54 | 1009.2 |
| 20260506011527 | 19 | 177 | 3.2 | 11.3 | 0.00 | 0.00 | 0.00 | 55 | 1009.2 |
| 20260506011028 | 19 | 230 | 4.8 | 16.1 | 0.00 | 0.00 | 0.00 | 55 | 1009.2 |
| 20260506010528 | 19 | 201 | 3.2 | 16.1 | 0.00 | 0.00 | 0.00 | 55 | 1009.0 |
| 20260506010027 | 19 | 203 | 3.2 | 14.5 | 0.00 | 0.00 | 0.00 | 55 | 1009.0 |
| 20260506005547 | 19 | 197 | 4.8 | 17.7 | 0.00 | 0.00 | 0.00 | 55 | 1009.0 |
| 20260506005027 | 19 | 206 | 4.8 | 17.7 | 0.00 | 0.00 | 0.00 | 55 | 1009.1 |
| 20260506004527 | 18 | 194 | 3.2 | 14.5 | 0.00 | 0.00 | 0.00 | 55 | 1009.0 |
| 20260506004027 | 19 | 203 | 3.2 | 22.5 | 0.00 | 0.00 | 0.00 | 55 | 1008.9 |
| 20260506003526 | 19 | 206 | 4.8 | 22.5 | 0.00 | 0.00 | 0.00 | 55 | 1008.8 |
| 20260506003029 | 19 | 194 | 3.2 | 11.3 | 0.00 | 0.00 | 0.00 | 55 | 1008.8 |
| 20260506002528 | 19 | 190 | 3.2 | 11.3 | 0.00 | 0.00 | 0.00 | 55 | 1008.6 |
| 20260506002028 | 18 | 157 | 3.2 | 11.3 | 0.00 | 0.00 | 0.00 | 55 | 1008.6 |
| 20260506001528 | 19 | 230 | 1.6 | 9.7 | 0.00 | 0.00 | 0.00 | 55 | 1008.3 |
| 20260506001028 | 19 | 216 | 3.2 | 14.5 | 0.00 | 0.00 | 0.00 | 54 | 1008.3 |
| 20260506000608 | 19 | 221 | 3.2 | 14.5 | 0.00 | 0.00 | 0.00 | 54 | 1008.1 |
| 20260506000028 | 19 | 201 | 4.8 | 17.7 | 0.00 | 0.00 | 0.00 | 53 | 1008.0 |
| 20260505235527 | 19 | 240 | 3.2 | 17.7 | 0.00 | 0.00 | 0.00 | 53 | 1008.0 |
| 20260505235047 | 20 | 197 | 4.8 | 14.5 | 0.00 | 0.00 | 0.00 | 53 | 1007.9 |
| 20260505234527 | 20 | 213 | 3.2 | 16.1 | 0.00 | 0.00 | 0.00 | 53 | 1007.7 |
| 20260505234027 | 20 | 173 | 4.8 | 22.5 | 0.00 | 0.00 | 0.00 | 52 | 1007.7 |
| 20260505233527 | 20 | 219 | 4.8 | 16.1 | 0.00 | 0.00 | 0.00 | 51 | 1007.7 |
| 20260505233027 | 21 | 242 | 4.8 | 17.7 | 0.00 | 0.00 | 0.00 | 50 | 1007.6 |
| 20260505232527 | 21 | 222 | 4.8 | 17.7 | 0.00 | 0.00 | 0.00 | 49 | 1007.5 |
| 20260505232027 | 21 | 226 | 4.8 | 17.7 | 0.00 | 0.00 | 0.00 | 48 | 1007.6 |
| 20260505231528 | 21 | 235 | 4.8 | 17.7 | 0.00 | 0.00 | 0.00 | 48 | 1007.4 |
| 20260505231029 | 21 | 178 | 3.2 | 12.9 | 0.00 | 0.00 | 0.00 | 48 | 1007.4 |
| 20260505230528 | 21 | 226 | 4.8 | 14.5 | 0.00 | 0.00 | 0.00 | 48 | 1007.4 |
| 20260505230028 | 21 | 248 | 4.8 | 12.9 | 0.00 | 0.00 | 0.00 | 48 | 1007.1 |
| 20260505225528 | 21 | 192 | 4.8 | 16.1 | 0.00 | 0.00 | 0.00 | 48 | 1007.1 |
| 20260505225027 | 22 | 184 | 4.8 | 22.5 | 0.00 | 0.00 | 0.00 | 48 | 1007.0 |
| 20260505224528 | 22 | 219 | 4.8 | 22.5 | 0.00 | 0.00 | 0.00 | 48 | 1006.9 |
| 20260505224027 | 22 | 206 | 6.4 | 20.9 | 0.00 | 0.00 | 0.00 | 47 | 1006.8 |
| 20260505223527 | 22 | 195 | 6.4 | 16.1 | 0.00 | 0.00 | 0.00 | 47 | 1006.7 |
| 20260505223027 | 22 | 211 | 6.4 | 16.1 | 0.00 | 0.00 | 0.00 | 47 | 1006.5 |
| 20260505222527 | 22 | 248 | 4.8 | 16.1 | 0.00 | 0.00 | 0.00 | 47 | 1006.4 |
| 20260505222027 | 22 | 198 | 4.8 | 20.9 | 0.00 | 0.00 | 0.00 | 47 | 1006.4 |
| 20260505221547 | 22 | 230 | 6.4 | 20.9 | 0.00 | 0.00 | 0.00 | 47 | 1006.5 |
| 20260505221027 | 22 | 203 | 8.0 | 37.0 | 0.00 | 0.00 | 0.00 | 46 | 1006.8 |
| 20260505220607 | 22 | 191 | 8.0 | 22.5 | 0.00 | 0.00 | 0.00 | 46 | 1006.8 |
| 20260505220048 | 22 | 182 | 4.8 | 25.7 | 0.00 | 0.00 | 0.00 | 47 | 1006.8 |
| 20260505215528 | 22 | 167 | 4.8 | 24.1 | 0.00 | 0.00 | 0.00 | 47 | 1006.8 |
| 20260505215028 | 22 | 206 | 4.8 | 17.7 | 0.00 | 0.00 | 0.00 | 46 | 1006.8 |
| 20260505214528 | 22 | 215 | 9.7 | 24.1 | 0.00 | 0.00 | 0.00 | 46 | 1006.7 |
| 20260505214028 | 23 | 208 | 8.0 | 24.1 | 0.00 | 0.00 | 0.00 | 45 | 1006.6 |
| 20260505213528 | 23 | 158 | 4.8 | 24.1 | 0.00 | 0.00 | 0.00 | 45 | 1006.6 |
| 20260505213028 | 23 | 217 | 4.8 | 24.1 | 0.00 | 0.00 | 0.00 | 45 | 1006.5 |
| 20260505212528 | 23 | 188 | 8.0 | 27.4 | 0.00 | 0.00 | 0.00 | 44 | 1006.4 |
| 20260505212048 | 23 | 208 | 6.4 | 27.4 | 0.00 | 0.00 | 0.00 | 44 | 1006.3 |
| 20260505211527 | 24 | 189 | 6.4 | 17.7 | 0.00 | 0.00 | 0.00 | 43 | 1006.2 |
| 20260505211047 | 24 | 226 | 9.7 | 24.1 | 0.00 | 0.00 | 0.00 | 42 | 1006.2 |
| 20260505210527 | 24 | 237 | 4.8 | 17.7 | 0.00 | 0.00 | 0.00 | 42 | 1006.1 |
| 20260505210027 | 25 | 213 | 6.4 | 24.1 | 0.00 | 0.00 | 0.00 | 41 | 1006.2 |
| 20260505205527 | 25 | 210 | 6.4 | 33.8 | 0.00 | 0.00 | 0.00 | 41 | 1006.2 |
| 20260505205026 | 25 | 252 | 6.4 | 33.8 | 0.00 | 0.00 | 0.00 | 41 | 1006.1 |
| 20260505204528 | 25 | 243 | 4.8 | 20.9 | 0.00 | 0.00 | 0.00 | 41 | 1006.0 |
| 20260505204029 | 25 | 167 | 6.4 | 29.0 | 0.00 | 0.00 | 0.00 | 40 | 1005.9 |
| 20260505203528 | 25 | 250 | 6.4 | 24.1 | 0.00 | 0.00 | 0.00 | 39 | 1006.1 |
| 20260505203028 | 26 | 229 | 6.4 | 22.5 | 0.00 | 0.00 | 0.00 | 39 | 1006.1 |
| 20260505202528 | 26 | 211 | 6.4 | 17.7 | 0.00 | 0.00 | 0.00 | 39 | 1006.1 |
| 20260505202028 | 26 | 195 | 8.0 | 37.0 | 0.00 | 0.00 | 0.00 | 38 | 1006.0 |
| 20260505201653 | 26 | 174 | 8.0 | 25.7 | 0.00 | 0.00 | 0.00 | 38 | 1006.1 |
| 20260505201028 | 26 | 210 | 6.4 | 24.1 | 0.00 | 0.00 | 0.00 | 39 | 1006.1 |
| 20260505200527 | 27 | 204 | 8.0 | 27.4 | 0.00 | 0.00 | 0.00 | 38 | 1005.9 |
| 20260505200047 | 26 | 220 | 3.2 | 16.1 | 0.00 | 0.00 | 0.00 | 39 | 1006.0 |
| 20260505195527 | 26 | 206 | 6.4 | 29.0 | 0.00 | 0.00 | 0.00 | 38 | 1006.0 |
| 20260505195048 | 26 | 220 | 8.0 | 35.4 | 0.00 | 0.00 | 0.00 | 37 | 1006.1 |
| 20260505194527 | 27 | 276 | 6.4 | 25.7 | 0.00 | 0.00 | 0.00 | 37 | 1006.1 |
| 20260505194048 | 26 | 212 | 6.4 | 25.7 | 0.00 | 0.00 | 0.00 | 37 | 1006.1 |
| 20260505193527 | 27 | 208 | 8.0 | 22.5 | 0.00 | 0.00 | 0.00 | 37 | 1006.3 |
| 20260505193047 | 27 | 184 | 6.4 | 24.1 | 0.00 | 0.00 | 0.00 | 37 | 1006.3 |
| 20260505192547 | 27 | 225 | 9.7 | 35.4 | 0.00 | 0.00 | 0.00 | 37 | 1006.4 |
| 20260505192029 | 27 | 199 | 6.4 | 20.9 | 0.00 | 0.00 | 0.00 | 37 | 1006.4 |